Terminal Aerodrome Forecast
Issued by NWS Atlanta, GA

Home | Current Version | Previous Version | Text Only | Print | Product List | Glossary On
Versions: 1 2 3 4 5 6 7 8 9 10 11 12 13 14 15 16 17 18 19 20 21 22 23 24 25 26 27 28 29 30 31 32 33 34 35 36 37 38 39 40 41 42
000
FTUS42 KFFC 011735
TAFATL
TAF
KATL 011735Z 0118/0224 13005KT P6SM SCT045 SCT250
     FM020000 VRB03KT P6SM SCT250
     FM021600 35004KT P6SM FEW035 SCT250
     FM022100 32007KT P6SM SCT250=

USA.gov is the U.S. government's official web portal to all federal, state and local government web resources and services.